Regional Weather Roundup
Issued by NWS Sterling, VA

Home | Current Version | Previous Version | Text Only | Print | Product List | Glossary Off
Versions: 1 2 3 4 5 6 7 8 9 10 11 12 13 14 15 16 17 18 19 20 21 22 23 24 25 26 27 28 29 30 31 32 33 34 35 36 37 38 39 40 41 42 43 44 45 46 47 48 49 50

000
ASUS41 KLWX 121410
RWRLWX

REGIONAL WEATHER ROUNDUP
NATIONAL WEATHER SERVICE BALTIMORE MD/WASHINGTON DC
1000 AM EDT SAT JUL 12 2014

Note: "FAIR" indicates few or no clouds below 12,000 feet
with no significant weather and/or obstructions to visibility.
 TC=TEMPERATURE CELSIUS

 * =Non NWS site. Station does not report precipitation (e.g. rain,
    snow, etc.), thunder, or fog.

DCZ001-MDZ009-015-VAZ040>042-051-053>054-121500-
WASHINGTON METRO

CITY           SKY/WX    TMP DP  RH WIND       PRES   REMARKS
WASHINGTON NAT PTSUNNY   81  70  69 S9        30.22S
DULLES         MOSUNNY   78  70  76 S9        30.21F
QUANTICO       PTSUNNY   78  72  81 S8        30.22S
COLLEGE PARK*  PTSUNNY   81  70  69 S6        30.21S
LEESBURG*      MOSUNNY   79  73  83 S7        30.23S
GAITHERSBURG*  MOSUNNY   79  72  78 S6        30.26S

$$

MDZ006>007-011-014-121500-
BALTIMORE METRO

CITY           SKY/WX    TMP DP  RH WIND       PRES   REMARKS
BWI AIRPORT    PTSUNNY   78  68  71 S6        30.21F
MD SCIENCE CTR   N/A     81  69  67 MISG      30.21F
MARTIN STATE   PTSUNNY   81  73  78 SE3       30.23F
ANNAPOLIS      MOSUNNY   79  69  71 CALM      30.22S
FORT MEADE*    PTSUNNY   81  70  69 CALM      30.24S

$$

MDZ012-015-019>023-121500-
MARYLAND EASTERN SHORE

CITY           SKY/WX    TMP DP  RH WIND       PRES   REMARKS
OCEAN CITY     SUNNY     75  68  78 E5        30.24R
SALISBURY      SUNNY     78  68  71 E3        30.23S
BAY BRIDGE AP*   N/A     77  72  83 W7        30.22S
CAMBRIDGE*     SUNNY     79  70  73 SE3       30.22S
EASTON*        MOSUNNY   81  77  89 CALM      30.26S

$$

MDZ017>025-121500-
SOUTHERN MARYLAND

CITY           SKY/WX    TMP DP  RH WIND       PRES   REMARKS
PATUXENT RIVER PTSUNNY   78  69  73 CALM      30.22S
ST INIGOES     SUNNY     78  69  73 SW6       30.22S
LEONARDTOWN*   PTSUNNY   77  68  73 MISG      30.25R

$$

MDZ003>005-121500-
NORTH CENTRAL MARYLAND

CITY           SKY/WX    TMP DP  RH WIND       PRES   REMARKS
FREDERICK*     NOT AVBL
HAGERSTOWN APT PTSUNNY   78  67  68 SW7       30.20F
WESTMINSTER*   MOSUNNY   81  72  74 S7        30.23S

$$

MDZ501>502-121500-
WESTERN MARYLAND

CITY           SKY/WX    TMP DP  RH WIND       PRES   REMARKS
OAKLAND*       SUNNY     72  59  64 SW6       30.29S
CUMBERLAND*    SUNNY     79  66  65 CALM      30.25S

$$

VAZ025>031-121500-
SHENANDOAH VALLEY

CITY           SKY/WX    TMP DP  RH WIND       PRES   REMARKS
WINCHESTER*    SUNNY     79  66  65 S6        30.21S
STAUNTON*      SUNNY     78  65  63 S5        30.25F

$$

WVZ021-048>050-054>055-121500-
EASTERN WEST VIRGINIA PANHANDLE

CITY           SKY/WX    TMP DP  RH WIND       PRES   REMARKS
MARTINSBURG    SUNNY     79  65  62 SE5       30.21S
PETERSBURG*    MOSUNNY   75  62  62 CALM      30.21F

$$

VAZ036>039-050-121500-
CENTRAL FOOTHILLS

CITY           SKY/WX    TMP DP  RH WIND       PRES   REMARKS
CHARLOTTESVILL MOSUNNY   77  70  79 CALM      30.22F
ORANGE*        PTSUNNY   79  70  73 SE5       30.23F

$$

VAZ055>057-121500-
NORTH AND CENTRAL PIEDMONT

CITY           SKY/WX    TMP DP  RH WIND       PRES   REMARKS
FREDERICKSBRG* PTSUNNY   81  73  74 SW7       30.21S
STAFFORD*      PTSUNNY   79  76  89 SE3       30.26S

$$

NCZ024-NYZ072-PAZ021-071-VAZ022-071-121500-
OTHER REGIONAL OBSERVATIONS

CITY           SKY/WX    TMP DP  RH WIND       PRES   REMARKS
NEW YORK CITY  SUNNY     78  62  57 CALM      30.25F
PHILADELPHIA   MOSUNNY   79  64  60 S5        30.22F
PITTSBURGH     MOSUNNY   77  61  57 CALM      30.20S
ROANOKE        MOSUNNY   77  66  68 CALM      30.27S
RICHMOND       PTSUNNY   80  70  71 CALM      30.23S
RALEIGH        MOSUNNY   80  68  66 CALM      30.23S

$$

ANZ530>537-121500-
MARINE OBSERVATIONS

STATION/POSITION TIME  TEMP    WIND        PRES
                       AIR SEA DIR/SP/G
                 (UTC) (F)     (DEG/KT/KT) (MB)
THOMAS PT LIGHT  1400   75 80  190/  3/  3 1023.9F
BALT KEY BRIDGE  1400   78     130/  4/  4 1022.9F
COVE POINT       1400   75     180/  7/  8 1023.4S
LEWISETTA        1400   76 81   90/  2/  3 1023.4R
SOLOMONS ISLAND  1400      80                N/A
PINEY POINT      1400          180/  3/  3   N/A

$$




USA.gov is the U.S. government's official web portal to all federal, state and local government web resources and services.